AirNav   Everest Fuels
 
 1863 users online  

OH06 Henry County Hospital Heliport
Napoleon, Ohio, USA

GOING TO NAPOLEON?


FAA INFORMATION EFFECTIVE 10 SEPTEMBER 2020

Location

FAA Identifier: OH06
Lat/Long: 41-24-43.1200N 084-05-15.2900W
41-24.718667N 084-05.254833W
41.4119778,-84.0875806
(estimated)
Elevation: 666 ft. / 203 m (estimated)
Variation: 06W (2010)
From city: 3 miles NE of NAPOLEON, OH
Time zone: UTC -4 (UTC -5 during Standard Time)
Zip code: 43545

Heliport Operations

Heliport use: Private use. Permission required prior to landing
Activation date: 06/2015
Control tower: no
ARTCC: CLEVELAND CENTER
FSS: CLEVELAND FLIGHT SERVICE STATION
Attendance: UNATNDD
Wind indicator: lighted
Segmented circle: no

Heliport Communications

WX AWOS-3P at USE (12 nm N): 127.375 (419-335-0775)
WX ASOS at DFI (16 nm W): 121.425 (419-658-2301)
WX ASOS at TOL (16 nm NE): PHONE 419-865-6924

Nearby radio navigation aids

VOR radial/distance  VOR name  Freq  Var
FBCr333/31.2FLAG CITY VORTAC108.2002W

 
NDB name  Hdg/Dist  Freq  Var  ID
TOPHR226/11.321905WTO - ---
ADRIAN187/27.527806WADG .- -.. --.
TECUMSEH200/38.423906WTCU - -.-. ..-

Heliport Services

Runway Information

Helipad H1

Dimensions: 50 x 50 ft. / 15 x 15 m
Surface: concrete
Latitude: 41-24.718667N
Longitude: 084-05.254833W
Elevation: 666.0 ft.
Traffic pattern: leftleft

Heliport Ownership and Management from official FAA records

Ownership: Privately-owned
Owner: HENRY COUNTY HOSPITAL
1600 EAST RIVERVIEW AVENUE
NAPOLEON, OH 43545
Phone 419-592-4015
Manager: MIKE CONRAD
LIFE FLIGHT ST. VINCENT
TOLEDO, OH 43608
Phone 419-251-4588

Additional Remarks

FOR CD CTC TOLEDO APCH AT 419-865-1495

Instrument Procedures

There are no published instrument procedures at OH06.

Some nearby airports with instrument procedures:

7W5 - Henry County Airport (2 nm S)
KUSE - Fulton County Airport (12 nm N)
KDFI - Defiance Memorial Airport (16 nm W)
KTOL - Eugene F Kranz Toledo Express Airport (16 nm NE)
0G6 - Williams County Airport (19 nm W)
 
Loc | Ops | Rwys | IFR | FBO | Links
Com | Nav | Svcs | Stats | Notes
Aerial photo
No photo
 
Airport distance calculator
Flying to Henry County Hospital Heliport? Find the distance to fly.

From to OH06

Sunrise and sunset
Times for 28-Sep-2020
 Local
(UTC-4)
 Zulu
(UTC)
Morning civil twilight07:0411:04
Sunrise07:3211:32
Sunset19:2123:21
Evening civil twilight19:4923:49

Current date and time
Zulu (UTC)  28-Sep-2020 16:47:43
Local (UTC-4)  28-Sep-2020 12:47:43
 
METAR
KDFI 
16nm W 
281635Z AUTO 30009KT 1 3/4SM +RA BR BKN008 OVC011 15/13 A2973 RMK AO2 P0005 T01500133
KTOL 
17nm NE 
281552Z 00000KT 10SM OVC014 18/13 A2969 RMK AO2 RAB16E35 SLP051 P0000 T01780133 $
KOWX 
23nm S 
281635Z AUTO 23006KT 7SM OVC013 19/14 A2972 RMK AO1
TAF
KTOL 
17nm NE 
281121Z 2812/2912 VRB03KT P6SM BKN070 TEMPO 2816/2818 4SM -SHRA BR OVC020 FM281800 21009KT 6SM -SHRA BR OVC020 FM282000 24012KT 4SM -SHRA BR OVC008 FM282300 27012KT 6SM -SHRA BR OVC025 FM290200 27011KT P6SM BKN060
NOTAMs
Click for the latest NOTAMs
NOTAMs are issued by the DoD/FAA and will open in a separate window not controlled by AirNav.

 

 
 

Would you like to see your business listed on this page?

 If your business provides an interesting product or service to pilots, flight crews, aircraft, or users of the Henry County Hospital Heliport, you should consider listing it here.  To start the listing process, click on the button below
 
Add a business
 

Other Pages about Henry County Hospital Heliport

Update a link
 
Copyright © AirNav, LLC. All rights reserved. Privacy Policy  Contact